Altoona, PA

7:48 PM EST on November 13, 2019 (GMT -0500)
Altoona-Blair County

Weather History for KAOO - September, 2019

Change the Weather History Date:

Sunday, September 29, 2019

  Actual Average Record
Temperature  
Mean Temperature 66 °F 57 °F  
Max Temperature 73 °F 67 °F 88 °F (1953)
Min Temperature 59 °F 46 °F 33 °F (2000)
Degree Days  
Heating Degree Days 0 9  
Month to date heating degree days 32 138  
Since 1 July heating degree days 41 170  
Cooling Degree Days 1 1  
Month to date cooling degree days 88 48  
Year to date cooling degree days 733 527  
Growing Degree Days 15 (Base 50)    
Moisture  
Dew Point 60 °F    
Average Humidity 82    
Maximum Humidity 97    
Minimum Humidity 66    
Precipitation  
Precipitation 0.00 in 0.11 in 1.55 in (2016)
Month to date precipitation 1.15 3.35  
Year to date precipitation 30.84 27.28  
Sea Level Pressure  
Sea Level Pressure 30.26 in    
Wind  
Wind Speed 3 mph (NNE)    
Max Wind Speed 10 mph    
Max Gust Speed 13 mph    
Visibility 6 miles    
Events Fog    
T = Trace of Precipitation, MM = Missing Value Source: NWS Daily Summary

Daily Weather History Graph

Daily Weather History Graph

Search for Another Location

Airport or City:

Astronomy

Sep. 29, 2019 Rise Set
Actual Time 7:07 AM EDT 6:59 PM EDT
Civil Twilight 6:40 AM EDT 7:26 PM EDT
Nautical Twilight 6:08 AM EDT 7:57 PM EDT
Astronomical Twilight 5:36 AM EDT 8:29 PM EDT
Moon 7:55 AM EDT (9/29) 7:58 PM EDT (9/29)
Length of Visible Light 12h 45m
Length of Day
11h 51m
New Moon, 1% of the Moon is Illuminated
Sep 29
New Moon
Oct 5
First Quarter
Oct 13
Full
Oct 21
Last Quarter
Oct 27
New

Hourly Weather History & Observations

Time (EDT) Temp. Dew Point Humidity Pressure Visibility Wind Dir Wind Speed Gust Speed Precip Events Conditions
12:26 AM 66.0 °F 64.0 °F 93% 30.19 in 1.8 mi SSW 8.1 mph - N/A   Clear
12:35 AM 66.0 °F 64.0 °F 93% 30.19 in 3.0 mi SW 6.9 mph - N/A   Clear
12:53 AM 66.0 °F 63.0 °F 90% 30.17 in 7.0 mi West 6.9 mph - N/A   Clear
1:53 AM 66.9 °F 63.0 °F 87% 30.17 in 10.0 mi Calm Calm - N/A   Clear
2:53 AM 64.9 °F 62.1 °F 90% 30.19 in 10.0 mi Calm Calm - N/A   Clear
3:53 AM 63.0 °F 61.0 °F 93% 30.20 in 5.0 mi Calm Calm - N/A   Clear
4:50 AM 62.6 °F 62.6 °F 100% 30.24 in 4.0 mi Calm Calm - N/A   Scattered Clouds
4:53 AM 62.1 °F 61.0 °F 96% 30.21 in 3.0 mi Calm Calm - N/A   Mostly Cloudy
4:57 AM 61.0 °F 60.1 °F 97% 30.24 in 1.8 mi Calm Calm - N/A   Mostly Cloudy
5:05 AM 61.0 °F 60.1 °F 97% 30.24 in 0.5 mi Calm Calm - N/A Fog Fog
5:21 AM 64.0 °F 62.1 °F 93% 30.24 in 2.5 mi Calm Calm - N/A   Overcast
5:28 AM 62.1 °F 61.0 °F 96% 30.25 in 1.0 mi Calm Calm - N/A   Overcast
5:32 AM 62.1 °F 60.1 °F 93% 30.25 in 0.5 mi Calm Calm - N/A Fog Fog
5:43 AM 63.0 °F 61.0 °F 93% 30.25 in 1.2 mi Calm Calm - N/A   Mostly Cloudy
5:45 AM 62.1 °F 61.0 °F 96% 30.25 in 4.0 mi Calm Calm - N/A   Mostly Cloudy
5:53 AM 62.1 °F 60.1 °F 93% 30.22 in 6.0 mi Calm Calm - N/A   Scattered Clouds
6:53 AM 61.0 °F 59.0 °F 93% 30.24 in 6.0 mi Calm Calm - N/A   Clear
6:59 AM 60.1 °F 57.9 °F 93% 30.26 in 1.8 mi Calm Calm - N/A   Partly Cloudy
7:03 AM 59.0 °F 57.9 °F 96% 30.27 in 0.5 mi Calm Calm - N/A Fog Fog
7:20 AM 59.0 °F 57.9 °F 96% 30.27 in 0.2 mi Calm Calm - N/A Fog Fog
7:34 AM 61.0 °F 59.0 °F 93% 30.27 in 1.0 mi Calm Calm - N/A   Overcast
7:44 AM 61.0 °F 60.1 °F 97% 30.28 in 1.0 mi Calm Calm - N/A   Overcast
7:53 AM 62.1 °F 60.1 °F 93% 30.25 in 2.5 mi Calm Calm - N/A   Overcast
8:02 AM 63.0 °F 61.0 °F 93% 30.28 in 4.0 mi Calm Calm - N/A   Overcast
8:53 AM 66.0 °F 63.0 °F 90% 30.28 in 10.0 mi Calm Calm - N/A   Overcast
9:53 AM 66.9 °F 62.1 °F 84% 30.30 in 10.0 mi NNE 6.9 mph - N/A   Overcast
10:11 AM 66.9 °F 62.1 °F 84% 30.33 in 10.0 mi NNE 5.8 mph - N/A   Overcast
10:24 AM 66.9 °F 62.1 °F 84% 30.33 in 10.0 mi NE 6.9 mph - N/A   Overcast
10:42 AM 66.0 °F 61.0 °F 84% 30.33 in 10.0 mi NNE 8.1 mph - N/A   Overcast
10:53 AM 66.0 °F 60.1 °F 81% 30.32 in 10.0 mi NNE 8.1 mph - N/A   Overcast
11:53 AM 66.9 °F 59.0 °F 76% 30.32 in 10.0 mi NE 5.8 mph - N/A   Overcast
12:53 PM 68.0 °F 59.0 °F 73% 30.32 in 10.0 mi NNE 6.9 mph - N/A   Overcast
1:53 PM 70.0 °F 59.0 °F 68% 30.29 in 10.0 mi North 8.1 mph - N/A   Overcast
2:53 PM 71.1 °F 59.0 °F 66% 30.28 in 10.0 mi ENE 5.8 mph - N/A   Overcast
3:53 PM 71.1 °F 59.0 °F 66% 30.27 in 10.0 mi North 6.9 mph - N/A   Overcast
4:36 PM 71.1 °F 59.0 °F 66% 30.28 in 10.0 mi NNE 6.9 mph - N/A   Scattered Clouds
4:53 PM 71.1 °F 59.0 °F 66% 30.26 in 10.0 mi NNE 4.6 mph - N/A   Clear
5:53 PM 69.1 °F 57.9 °F 68% 30.27 in 10.0 mi NE 4.6 mph - N/A   Scattered Clouds
6:53 PM 66.9 °F 57.9 °F 73% 30.26 in 10.0 mi Calm Calm - N/A   Clear
7:53 PM 66.0 °F 57.9 °F 75% 30.27 in 10.0 mi NNE 3.5 mph - N/A   Clear
8:53 PM 63.0 °F 57.0 °F 81% 30.28 in 10.0 mi SSE 3.5 mph - N/A   Clear
9:53 PM 64.0 °F 57.9 °F 80% 30.29 in 10.0 mi Calm Calm - N/A   Clear
10:53 PM 63.0 °F 57.9 °F 84% 30.28 in 10.0 mi Calm Calm - N/A   Clear
11:53 PM 63.0 °F 57.9 °F 84% 30.27 in 10.0 mi Calm Calm - N/A   Partly Cloudy